Taganrog Yuzhny Airport

Jump to: basic info | weather | comments

Related pages: nearby airports | nearby navaids | notams | map

Basic information (top)

Codes: TGK URRT
Location: lon 47.200001, lat 38.849998, elev 118 ft / 36 m msl
Status: medium_airport

Weather (top)

Current conditions for Rostov-na-Donu Airport 40nm (73km) E (rec'd 2014/08/22 03:30Z):

URRR 220330Z 08002MPS CAVOK 20/12 Q1013 04CLRD70 NOSIG

Airport forecast for Rostov-na-Donu Airport 40nm (73km) E (rec'd 2014/08/22 03:00Z):

TAF URRR 220200Z 2203/2303 VRB02MPS 9999 SCT020 T30/2209Z 
      TEMPO 2209/2218 25005G10MPS

Latest comments (top)

dgs: gsdg [read]

More... (top)

See also NOTAMs and nearby airports and navaids, or visit the Taganrog Yuzhny Airport page at the main OurAirports website..